Theta_e
305 305 305 305 305 305 304 305 302 304 303 308 318 320 322 325 329 329 329 329 330 331 331 332 333 335 340 341 350 345 348 350 346 345 352 355 357 354 353 355 356 354 353 350
304 305 304 303 305 305 304 304 303 305 307 318 319 321 321 322 323 322 322 323 324 325 325 325 327 331 335 337 344 350 350 349 352 355 357 358 354 350 349 353 354 355 353 352
301 301 302 300 304 304 306 309 309 305 311 317 315 315 317 318 319 318 319 320 322 323 324 325 324 327 329 332 335 344 347 348 350 352 354 356 357 356 354 352 354 354 352 352
301 301 292 303 310 309 308 309 310 312 313 315 315 316 317 318 319 320 322 324 324 324 325 326 325 326 327 330 334 337 342 345 348 349 350 354 354 352 351 353 355 354 354 352
298 297 299 304 307 307 306 306 310 310 310 311 313 315 317 321 322 321 320 322 323 324 325 326 326 327 327 328 329 331 332 335 342 348 349 349 349 351 353 350 350 353 354 353
298 295 293 302 308 311 310 302 310 311 310 310 312 307 313 319 320 319 319 320 320 322 322 322 325 326 325 325 328 329 332 333 338 343 349 347 348 349 352 353 349 351 352 355
299 298 302 307 310 311 300 303 311 312 311 311 310 312 315 317 317 319 319 320 321 321 321 322 324 325 323 325 325 330 332 333 336 339 342 349 347 349 350 351 350 347 349 353
300 298 295 311 309 304 309 313 312 313 313 312 314 315 316 317 318 319 319 320 321 321 321 323 324 325 324 324 328 332 331 332 335 337 339 342 345 345 348 349 349 348 345 348
303 303 309 313 311 314 313 314 314 314 315 315 314 315 316 317 319 319 320 321 322 321 321 322 323 325 323 328 330 328 328 330 333 334 335 340 343 343 341 346 343 343 341 343
305 307 310 312 314 315 315 315 316 316 316 316 315 316 317 318 319 319 320 320 322 321 320 321 324 325 325 326 327 326 326 329 330 330 329 332 335 340 340 340 340 342 341 344
305 308 309 311 313 315 315 316 315 317 317 316 316 316 317 318 319 319 320 320 321 320 320 321 323 323 324 326 327 325 325 326 326 325 327 328 330 335 339 340 337 340 343 345
302 310 310 312 315 315 314 314 316 316 316 317 318 317 318 318 320 320 320 321 321 321 321 322 323 323 325 326 326 325 324 324 324 324 324 325 326 329 319 316 310 307 306 321
310 313 313 314 315 316 315 316 317 318 318 317 319 319 320 319 320 318 318 320 320 321 320 322 323 323 325 326 326 325 324 325 324 321 323 324 325 326 330 328 308 303 303 304
315 314 312 315 313 317 317 318 318 319 320 320 320 321 321 320 320 321 320 321 323 323 322 322 323 324 326 327 326 325 325 315 323 323 324 324 325 326 329 330 330 333 313 311
315 316 315 316 317 318 319 319 318 318 319 319 321 320 321 319 317 320 323 323 323 322 322 323 323 324 327 327 325 324 324 324 324 324 324 323 325 326 328 330 330 330 333 312
315 315 317 316 317 318 318 319 317 317 318 318 317 318 319 319 319 319 321 324 320 318 321 323 324 326 328 328 327 325 325 321 320 324 324 324 325 325 325 328 328 330 331 330
312 313 315 316 317 317 316 316 316 316 316 317 317 319 319 319 319 318 320 322 321 320 324 325 326 329 329 328 327 325 325 325 321 323 323 324 325 326 325 326 328 334 333 332
317 318 320 319 317 315 315 316 316 317 316 318 318 318 318 319 318 319 320 320 323 324 326 328 329 329 329 329 328 326 325 325 321 319 321 323 324 326 325 327 329 333 333 331
320 319 319 319 319 317 316 316 316 317 317 318 317 318 319 320 321 322 323 323 322 323 326 328 326 326 328 330 327 328 325 324 322 321 322 319 322 325 326 327 332 333 333 333
320 319 320 318 319 316 315 316 316 315 316 316 316 316 318 321 323 325 326 324 325 325 327 327 328 329 329 330 328 329 330 327 325 322 322 324 323 324 325 318 329 331 334 334
318 318 317 315 316 316 316 316 315 314 315 316 315 316 317 320 324 326 323 322 326 326 324 323 326 327 328 328 327 327 328 330 331 327 324 323 326 324 325 327 329 330 333 334
318 317 317 317 315 315 316 315 315 315 315 316 316 316 317 318 320 324 325 321 323 316 321 323 321 320 322 323 325 325 327 329 330 327 324 325 327 328 330 330 333 334 334 335
319 318 317 317 314 315 316 314 314 314 314 314 314 314 314 316 315 315 311 313 317 315 316 315 313 313 314 322 323 325 324 327 327 327 327 328 329 331 332 333 334 335 333 330
319 318 316 318 316 314 310 312 313 313 314 313 313 315 313 312 313 315 316 312 310 312 312 310 311 310 312 315 316 318 327 333 332 329 329 317 330 329 329 327 326 327 327 322
319 318 317 315 313 312 311 311 312 310 312 312 311 312 312 313 311 312 311 312 309 310 310 308 308 309 310 312 315 318 318 318 321 322 322 322 322 322 322 322 322 322 324 324
316 314 316 315 314 314 313 311 311 310 308 308 307 308 308 310 309 309 309 307 308 307 307 307 305 306 306 308 309 310 309 309 313 311 311 311 311 310 310 311 312 314 316 317
316 307 313 313 313 312 312 312 312 311 309 307 307 308 306 310 307 306 305 306 306 305 305 304 305 304 304 304 304 304 304 306 302 307 307 307 306 306 306 305 304 306 306 306
Wind_Speed
1 1 3 3 6 8 8 5 8 11 6 8 8 10 9 4 3 5 8 10 9 8 8 8 9 9 10 11 9 2 5 8 8 9 7 9 8 8 10 12 11 12 12 11
2 2 4 6 7 8 8 5 8 9 10 3 4 1 3 5 5 7 7 8 9 9 9 8 8 8 8 9 9 7 5 5 7 9 7 5 4 6 7 13 12 12 12 13
7 3 2 9 10 9 4 2 4 7 3 4 2 4 3 4 5 5 6 7 8 7 6 5 4 2 5 8 9 7 6 7 10 10 10 8 7 7 10 11 12 14 13 14
4 2 9 5 5 6 3 1 3 2 2 1 1 0 1 2 3 3 6 9 9 10 11 10 8 7 5 6 7 6 6 6 6 7 8 8 6 6 8 10 12 13 13 14
4 6 4 3 2 0 2 3 2 3 2 1 5 5 10 8 6 5 7 11 13 13 12 12 13 10 6 6 6 7 6 7 8 8 7 6 7 7 7 7 9 11 12 13
3 4 5 4 3 5 3 6 3 1 0 3 5 6 4 8 5 10 16 14 14 15 16 16 14 13 12 11 9 10 6 7 8 9 8 8 7 7 8 7 10 7 12 14
4 5 1 2 4 1 5 4 3 1 4 6 7 8 12 15 16 14 16 17 17 17 17 18 17 15 14 13 13 10 10 8 8 9 10 8 7 7 7 8 9 8 10 12
2 3 5 3 2 3 6 1 3 6 8 11 13 15 16 17 17 17 17 17 17 17 18 17 16 15 16 15 13 12 9 9 8 10 8 7 7 7 7 8 9 9 8 8
4 3 2 1 3 4 4 7 9 9 13 14 16 18 19 19 20 18 19 17 17 16 17 16 17 16 17 15 13 13 11 10 10 8 9 9 8 8 7 7 7 7 5 7
4 2 4 5 4 6 6 10 13 15 17 17 20 21 21 19 19 18 18 18 17 17 18 18 16 17 16 15 13 13 12 11 10 9 9 9 8 8 7 7 8 7 6 10
4 5 6 8 9 8 10 13 15 17 19 20 21 22 22 19 19 18 18 18 16 16 17 18 17 17 17 14 12 12 11 11 12 11 11 10 10 9 8 9 9 9 8 10
5 7 6 10 10 9 14 18 19 20 21 20 20 21 22 20 19 18 17 17 16 17 18 18 18 17 16 14 13 12 12 10 10 11 11 10 10 10 11 13 11 12 10 9
4 4 8 14 15 17 16 18 20 21 21 22 22 21 20 18 17 17 16 18 19 17 16 17 17 18 17 14 13 13 13 12 10 10 10 11 10 9 9 9 12 9 8 8
6 6 11 11 15 19 19 20 20 20 20 20 20 19 20 20 19 18 18 18 17 17 17 16 17 18 16 14 13 14 14 13 12 11 11 11 11 10 9 9 8 7 9 9
7 7 13 16 17 18 18 18 20 20 20 21 20 19 19 20 18 19 16 14 15 15 18 17 17 18 14 13 14 15 12 10 10 10 11 11 10 10 10 9 8 8 5 5
12 14 15 15 19 20 20 21 21 22 22 21 18 19 19 18 17 17 16 14 10 11 13 16 16 17 13 11 12 12 12 16 13 10 10 11 11 11 10 9 10 10 8 9
12 14 17 17 17 19 19 18 16 16 17 17 18 18 17 18 17 14 14 12 8 12 15 15 16 13 12 11 12 10 9 10 12 11 12 12 12 13 11 9 10 10 10 11
9 12 13 14 16 17 19 17 16 16 15 16 18 18 17 14 13 12 12 7 12 13 13 14 13 12 11 10 10 9 9 9 8 10 10 12 14 13 9 9 10 11 10 10
11 12 14 15 15 16 15 15 16 16 16 15 16 17 16 14 11 10 7 10 12 12 10 6 9 11 11 10 10 8 9 10 9 9 10 11 11 12 9 9 11 11 9 8
11 12 13 15 17 14 15 15 17 15 14 14 15 15 14 12 10 9 9 11 10 8 10 11 11 11 11 11 12 9 10 11 10 8 9 10 11 10 9 9 10 10 10 8
10 12 13 14 15 15 14 14 15 15 15 13 12 13 12 11 11 11 10 8 10 9 12 12 10 10 10 10 10 10 11 11 9 9 8 9 10 10 9 11 10 9 10 9
9 11 12 15 15 14 14 14 14 14 13 13 13 13 12 10 10 10 8 11 9 12 7 7 8 15 13 17 10 10 10 10 7 5 6 6 8 9 9 8 10 10 10 10
8 9 11 14 13 13 13 14 14 14 14 14 13 13 12 9 10 9 9 13 9 11 8 8 18 23 23 9 7 7 9 8 5 6 6 5 6 7 6 7 7 7 5 5
7 9 11 13 12 12 15 15 13 13 13 14 15 13 12 9 9 9 8 12 16 13 11 15 18 23 17 10 8 6 5 5 5 4 2 6 5 4 2 1 0 3 4 4
7 8 10 13 12 10 12 12 11 12 12 13 14 13 15 10 9 8 10 10 19 15 12 21 26 25 13 13 15 14 13 12 7 8 7 7 6 6 5 5 5 6 5 4
8 6 6 9 7 8 9 9 8 10 10 11 11 11 11 10 10 10 11 15 13 16 12 12 13 14 14 16 17 16 14 16 11 12 13 10 9 9 9 9 9 8 8 8
6 7 7 7 8 7 8 9 9 10 10 8 9 10 10 10 11 11 12 11 11 12 12 12 13 16 14 15 15 14 12 12 17 13 13 10 11 11 10 11 10 9 9 11
Wind_Direction
190 182 206 243 211 195 222 261 252 314 257 287 327 318 309 316 18 49 40 43 36 40 37 19 17 0 356 352 6 351 254 255 247 238 221 210 181 195 211 225 215 203 195 201
263 211 241 254 251 242 242 234 253 267 271 269 343 83 101 64 56 49 28 22 23 21 20 23 17 356 341 341 345 359 349 316 314 315 318 314 187 209 205 228 218 212 206 206
250 1 292 258 256 249 234 219 279 254 5 160 132 103 60 54 41 39 2 354 342 339 337 328 320 307 322 319 321 332 337 333 337 347 342 328 292 246 233 221 215 217 209 209
275 201 249 54 352 241 239 141 195 157 118 175 214 98 321 320 325 321 316 307 315 318 318 313 315 311 309 293 299 311 309 313 320 332 339 330 307 267 241 238 229 221 218 212
241 227 338 204 157 156 251 165 172 155 141 63 355 287 265 244 254 293 332 313 302 302 301 308 308 309 289 277 278 286 291 309 309 310 315 328 317 303 285 242 234 238 227 221
161 240 251 73 109 4 167 253 164 217 132 329 334 274 308 11 261 279 303 299 293 295 294 294 291 296 296 293 293 292 279 286 296 295 287 295 305 300 293 268 251 239 241 227
205 250 264 51 354 217 234 41 150 297 316 301 283 282 293 290 282 276 280 284 285 282 279 281 286 285 277 280 275 271 287 280 278 282 280 272 287 289 284 277 262 237 238 237
167 247 251 33 135 304 358 272 258 293 300 300 295 293 293 292 290 290 285 281 278 278 278 277 279 277 277 274 274 273 266 272 276 290 292 276 272 278 275 265 266 259 237 231
254 7 24 329 48 348 281 280 280 276 305 305 294 291 291 291 288 285 284 283 281 279 281 279 275 268 273 275 271 264 265 266 270 275 286 281 264 264 268 259 255 266 234 220
275 134 249 250 246 269 271 272 284 286 290 294 289 289 287 288 285 287 286 281 282 283 279 277 273 270 269 271 271 259 254 255 261 269 279 282 272 255 254 257 256 243 230 226
266 265 283 260 241 259 293 295 290 286 288 290 292 290 289 285 282 281 279 278 277 275 274 273 275 273 269 270 267 261 256 258 261 261 264 273 268 262 239 246 256 264 238 230
306 311 279 276 281 300 294 295 295 294 293 290 290 286 285 282 281 281 281 282 277 270 267 270 272 272 269 266 263 261 259 255 255 258 254 258 262 265 224 240 263 270 273 272
288 334 280 287 291 289 288 294 295 293 287 287 288 287 286 279 275 273 270 271 275 273 270 268 268 266 263 264 261 257 255 260 257 247 253 249 249 250 254 239 234 247 239 224
275 295 296 297 299 305 300 298 298 291 289 292 293 287 286 285 282 274 268 269 274 274 271 266 266 265 265 263 260 256 257 249 253 247 244 239 242 245 243 244 254 260 217 209
315 304 282 297 298 299 304 305 303 300 301 302 304 299 294 290 281 276 276 267 275 272 274 270 267 265 263 260 253 253 252 250 249 245 243 241 247 248 246 242 235 244 227 205
314 310 311 309 309 313 317 315 312 306 306 306 301 294 293 285 280 270 269 262 256 261 267 272 266 266 268 252 247 253 252 245 250 243 239 236 241 242 242 235 235 233 234 234
315 320 319 316 319 316 313 309 302 300 300 298 298 298 292 289 289 274 263 263 234 253 256 265 265 269 261 251 250 255 257 249 229 237 240 242 242 238 234 231 232 236 243 244
300 298 306 311 316 317 316 315 311 306 306 305 304 302 297 289 299 289 279 253 260 272 266 261 262 264 264 259 248 251 251 247 239 236 241 243 239 235 224 227 232 239 240 230
330 326 324 323 328 323 313 314 317 317 315 313 311 310 303 292 292 290 279 269 277 272 283 283 266 259 258 255 240 245 239 245 241 235 235 230 232 229 219 219 229 236 236 233
344 335 335 342 338 328 325 326 318 317 319 315 317 313 323 337 337 317 299 287 286 284 294 285 274 266 263 256 231 236 241 244 244 234 230 227 225 225 224 225 231 234 229 234
342 344 354 348 343 338 334 332 335 333 330 327 325 330 330 334 342 332 326 317 1 352 319 304 300 295 288 276 258 252 252 256 248 247 224 224 225 222 219 223 222 226 240 245
349 353 355 348 347 340 349 348 343 346 349 351 357 352 345 355 1 358 22 358 333 353 350 346 345 333 317 291 262 259 257 255 247 217 214 217 225 223 219 218 224 232 248 248
357 3 355 355 346 341 350 355 351 350 356 357 2 3 3 11 13 17 17 358 6 5 3 353 348 349 339 324 311 268 246 233 213 217 211 203 201 210 217 235 249 251 265 251
9 20 3 2 351 2 4 356 358 355 4 5 359 8 10 12 26 15 10 7 6 16 16 4 358 355 345 331 312 293 250 193 178 162 129 76 79 69 69 106 59 58 27 333
28 30 19 16 6 6 358 356 5 3 3 13 12 17 16 17 24 10 15 15 16 18 19 10 9 1 358 9 29 45 52 40 28 71 66 63 58 58 50 50 57 51 44 10
43 31 24 21 13 12 17 9 16 12 8 13 15 13 14 19 16 15 23 16 19 14 20 14 8 6 14 22 29 36 43 44 26 50 47 39 45 47 37 37 36 30 28 27
57 30 35 35 29 8 16 24 21 21 18 8 14 16 10 14 19 23 22 21 18 19 19 14 16 19 20 25 30 31 29 38 33 39 44 36 41 40 43 41 38 34 40 38